Theta_e
311 310 310 309 310 310 310 311 311 311 312 312 312 313 313 313 313 314 314 313 313 312 312 313 314 315 315 317 316 315 307 309 314 311 314 315 314 315 315 314 315 314 314 313 314
310 310 309 309 310 310 311 311 312 312 312 313 313 314 315 316 317 317 314 313 313 313 312 312 314 315 316 317 317 311 305 309 311 313 314 315 314 315 315 314 313 315 314 314 314
310 309 309 310 310 311 312 312 312 313 314 315 317 319 320 320 319 314 312 312 312 311 312 313 315 315 315 317 317 313 309 311 315 315 315 315 314 315 314 312 312 313 312 313 313
310 309 309 310 311 312 312 312 313 314 317 319 319 319 318 318 318 314 312 311 311 312 313 315 314 315 313 314 316 315 315 314 316 316 315 314 315 314 314 313 313 313 313 313 314
309 309 309 310 311 312 312 312 315 318 319 319 318 317 317 316 317 318 314 313 312 312 313 313 314 315 313 313 313 315 314 314 315 315 314 314 313 313 313 312 312 312 312 312 312
309 309 309 311 312 311 312 314 318 319 318 318 318 318 318 314 317 316 317 314 312 312 313 313 313 315 314 313 312 312 313 313 314 314 312 312 311 312 311 312 313 312 313 311 310
308 309 310 311 311 311 314 317 318 318 318 318 318 319 318 318 317 316 316 316 313 312 312 312 314 315 314 312 313 313 312 309 310 311 311 311 313 311 311 311 312 311 310 309 309
308 309 311 311 311 313 316 318 318 318 318 318 319 320 318 317 317 316 315 316 314 312 312 312 314 315 314 313 310 311 308 310 310 311 311 311 313 312 311 311 309 309 308 307 307
309 310 311 311 312 314 317 318 318 318 318 319 319 318 317 315 315 315 314 314 313 312 313 314 314 313 313 308 308 306 311 309 309 311 311 311 312 311 310 310 306 305 305 305 305
310 311 311 312 313 316 317 318 319 319 319 319 319 317 316 315 313 313 313 313 313 313 313 314 313 307 305 307 312 310 309 308 310 311 311 311 310 309 309 309 305 303 303 303 303
311 314 315 314 315 317 318 319 320 320 319 319 317 317 314 315 313 312 312 312 312 312 309 310 308 309 308 307 309 308 308 310 309 310 311 310 309 309 306 304 302 302 301 301 302
315 315 315 316 316 318 319 321 320 319 319 319 320 317 315 313 312 310 311 311 310 308 308 307 308 308 307 307 308 309 309 308 308 308 309 309 309 309 304 303 303 301 300 300 301
316 315 315 317 318 318 320 320 321 320 319 319 319 319 319 315 314 313 311 311 309 308 307 308 311 307 308 307 308 307 308 309 310 310 309 309 309 306 303 302 301 301 300 299 300
316 316 316 317 319 318 319 320 321 321 317 316 315 317 317 317 315 316 311 312 309 309 307 307 308 310 308 309 307 309 307 309 310 311 313 308 311 308 304 302 300 299 299 299 299
317 317 317 319 319 320 319 320 321 319 321 314 312 312 313 316 311 309 309 310 308 309 308 312 309 309 310 310 309 311 308 309 309 309 308 309 309 307 304 304 301 299 299 298 299
317 317 317 318 319 320 321 321 320 319 322 315 309 308 310 308 308 308 309 310 310 309 309 310 309 308 309 307 308 306 308 307 306 307 310 309 310 309 306 306 302 299 299 299 299
319 318 318 318 319 320 321 320 320 323 316 313 309 307 309 307 307 307 307 307 309 312 312 311 310 308 308 308 307 307 309 313 312 311 314 308 308 309 306 303 302 300 299 298 299
320 319 318 318 318 320 319 319 323 321 318 309 308 306 310 307 307 306 307 308 306 308 309 312 314 309 307 308 309 307 310 313 315 312 311 308 311 311 301 300 301 302 301 299 299
321 320 319 319 319 320 317 323 323 321 317 310 309 309 308 308 307 307 305 307 307 305 313 311 313 307 307 307 308 308 309 309 309 295 307 310 309 303 300 299 298 299 300 300 299
321 320 320 320 319 320 319 323 321 319 315 311 316 311 310 309 309 306 306 306 308 305 309 311 315 309 307 308 308 309 308 312 308 309 310 311 309 311 304 301 298 297 299 300 300
321 320 320 321 320 319 321 320 321 319 317 314 316 314 310 313 310 307 308 309 308 306 308 309 313 311 308 308 309 310 310 309 309 308 310 307 310 303 304 300 299 299 301 301 301
318 319 320 321 320 319 322 321 319 318 316 315 314 315 313 313 312 309 311 311 310 308 309 309 309 309 310 306 305 307 309 308 312 310 304 307 312 301 302 300 300 300 302 303 303
317 314 317 320 323 322 319 320 319 316 316 315 315 315 313 313 317 312 311 309 309 310 311 310 310 305 309 308 306 308 306 306 305 303 304 314 311 301 300 300 301 302 303 303 302
314 313 311 312 312 317 320 320 319 314 315 315 315 313 313 314 315 316 311 308 308 309 311 311 308 309 314 310 308 308 307 305 308 311 311 311 310 305 303 301 300 302 302 302 302
313 311 312 313 313 312 316 317 318 316 313 314 314 316 317 316 316 315 310 308 307 309 308 310 311 308 308 305 306 307 307 304 306 308 312 310 306 304 303 301 302 303 303 302 302
309 308 308 309 311 312 313 315 317 314 313 313 314 314 315 317 314 314 311 309 310 306 307 304 310 306 305 303 305 306 305 303 305 304 303 302 302 300 302 304 302 302 301 300 298
305 305 307 307 309 312 313 310 312 313 310 311 312 313 314 314 312 308 310 310 309 307 306 305 303 304 312 298 300 307 304 304 303 302 304 304 305 294 296 296 298 299 298 297 297
Wind_Speed
5 5 5 5 5 5 4 5 5 5 5 6 7 8 9 10 11 12 12 6 4 4 3 3 2 0 1 3 4 3 4 2 4 6 2 2 4 1 5 1 4 2 5 9 9
8 8 7 7 6 7 6 7 6 7 8 8 8 9 9 11 11 11 5 4 5 5 5 4 2 1 2 2 2 4 4 6 3 2 2 3 2 6 4 8 2 10 6 7 9
11 10 9 9 9 8 8 8 9 8 9 9 10 10 10 10 11 2 1 0 3 5 6 5 3 1 2 1 1 2 4 3 3 5 2 2 4 1 3 4 5 9 8 8 7
13 12 11 11 10 10 10 10 9 9 9 10 10 11 10 8 2 1 2 2 4 6 7 5 1 1 2 1 1 1 3 3 2 3 2 3 5 2 6 2 7 2 5 7 6
15 14 13 12 11 11 11 11 11 10 11 11 11 11 10 5 6 6 5 6 6 8 7 4 2 3 2 3 2 2 2 3 6 9 9 9 8 4 13 7 3 3 2 5 6
18 16 14 13 12 12 12 12 12 12 12 12 11 10 9 5 7 8 8 8 8 9 8 5 2 4 3 2 2 1 4 10 10 11 9 5 2 1 5 7 2 1 6 8 8
19 18 16 15 14 13 13 13 13 13 13 12 12 10 12 14 10 8 9 9 10 9 9 6 5 5 4 3 1 1 4 7 6 4 4 4 1 5 7 3 4 3 4 6 9
21 19 18 17 15 15 14 14 14 14 13 12 11 10 8 11 11 13 12 9 9 9 7 6 7 4 2 4 4 3 4 4 2 2 1 4 7 3 6 1 5 3 3 5 8
23 21 20 18 17 16 15 15 13 13 13 13 11 7 7 8 10 13 10 10 10 9 7 7 7 3 4 5 4 6 3 4 8 1 2 2 5 3 4 6 5 4 4 5 6
25 23 21 19 18 18 15 14 13 14 14 12 13 5 12 5 7 9 11 10 7 11 8 6 3 3 3 4 5 6 4 4 6 1 3 2 7 10 8 2 8 7 7 7 8
27 25 22 20 19 17 14 10 10 7 14 10 4 5 2 9 9 9 12 12 10 7 5 4 4 8 13 10 3 4 4 6 3 3 2 6 7 12 4 11 12 11 11 11 13
27 25 22 20 19 17 15 8 7 4 8 14 22 19 12 10 7 12 15 11 7 5 6 4 7 10 4 5 5 3 4 6 5 4 5 6 9 2 3 2 10 14 13 14 16
26 24 21 19 19 20 18 16 11 7 5 8 18 19 23 20 9 15 20 9 5 6 7 8 5 7 6 4 6 5 7 4 7 1 2 1 7 4 3 8 12 12 14 15 16
25 24 21 19 16 22 21 13 11 4 3 6 6 7 11 10 6 13 21 8 3 10 7 6 4 6 4 6 7 5 8 7 4 3 4 2 5 4 3 3 4 12 15 15 16
26 24 25 26 11 15 15 15 11 5 5 3 4 6 10 9 11 4 15 7 7 7 7 7 7 5 6 6 7 6 5 5 3 3 1 3 0 6 5 5 6 14 16 16 17
28 26 27 26 23 15 15 15 13 2 11 4 5 6 6 3 3 6 5 4 4 5 1 5 1 6 7 2 6 9 6 6 4 3 1 8 7 4 5 5 5 15 19 19 18
32 31 32 31 34 22 18 22 2 8 1 6 5 6 4 6 3 4 6 6 6 5 6 1 4 3 4 5 2 4 6 0 3 1 6 1 2 7 5 3 5 18 27 23 19
35 34 36 38 35 29 28 4 10 11 9 3 5 4 7 8 5 7 7 6 6 3 3 7 4 10 6 7 8 7 6 5 7 4 4 2 6 5 3 6 9 20 28 25 23
41 40 43 44 40 35 27 13 15 8 8 10 4 4 5 5 6 5 7 6 9 11 8 6 5 1 2 2 4 5 4 2 6 2 2 5 4 2 1 1 7 19 28 28 25
48 45 52 47 46 43 14 20 12 8 8 5 17 9 12 9 8 8 10 6 6 13 5 7 2 1 2 4 4 4 6 4 2 2 5 4 4 5 5 8 6 11 26 27 24
43 21 32 49 49 26 12 13 19 13 15 11 15 10 7 9 11 7 8 3 7 6 7 6 4 1 4 5 9 3 3 3 3 4 5 2 5 6 7 9 13 18 29 28 26
26 5 15 38 20 8 17 22 16 10 22 7 4 5 11 11 10 9 13 7 17 15 11 7 4 4 6 2 1 0 6 7 6 6 2 1 11 2 4 15 25 26 29 26 24
9 6 24 42 15 15 6 16 14 9 13 9 8 5 4 10 6 7 7 1 16 11 11 9 3 2 5 1 1 4 5 3 4 3 7 6 8 3 4 9 21 22 25 24 22
11 3 4 12 3 4 17 14 15 10 9 8 6 4 4 4 1 7 7 1 4 6 10 12 5 8 10 6 5 6 7 6 6 5 5 13 14 3 4 8 13 19 20 21 20
11 5 9 5 9 4 6 10 15 9 5 9 3 15 17 6 7 8 4 3 0 3 1 5 7 5 3 4 5 7 7 10 10 12 13 13 13 7 11 10 20 21 16 18 18
9 5 7 6 13 12 6 7 15 5 8 5 4 8 10 9 9 7 7 4 4 0 4 3 1 3 2 2 1 5 9 11 17 4 6 4 11 7 11 14 14 19 17 21 23
3 6 6 7 4 7 10 8 13 7 2 2 8 6 13 15 11 7 10 13 8 7 6 5 6 4 5 4 4 9 10 15 6 5 11 12 14 4 5 10 19 22 20 18 16
Wind_Direction
253 260 266 266 273 278 285 291 298 302 303 306 309 312 314 315 312 311 309 285 265 224 222 217 207 125 14 47 60 80 62 170 204 159 207 351 39 136 312 251 310 328 324 308 298
257 257 258 263 266 275 282 287 291 295 301 303 305 307 312 316 317 309 295 275 241 223 204 192 169 115 73 51 41 82 106 220 224 191 196 322 11 338 339 335 40 348 355 304 288
249 253 253 255 258 265 273 278 285 289 293 297 301 304 309 319 324 338 39 138 174 172 169 159 134 62 91 71 20 124 168 203 253 243 252 313 313 111 326 329 79 346 5 25 40
246 246 249 255 261 267 273 275 276 282 288 292 296 297 301 309 294 243 212 167 156 166 169 175 160 88 96 144 164 67 220 211 288 251 299 307 311 328 242 177 344 328 355 352 358
244 244 246 250 259 264 269 274 279 283 287 292 295 297 300 279 259 252 242 227 209 202 200 223 227 172 172 169 139 166 294 263 275 275 275 274 263 272 276 300 142 126 354 1 6
245 245 246 251 259 264 267 270 276 282 286 289 291 291 286 258 265 258 241 236 226 219 224 236 243 197 138 126 150 276 309 301 294 278 275 226 241 292 77 114 115 11 355 358 359
243 246 249 254 258 259 262 269 274 278 281 285 288 289 277 268 264 255 245 235 230 230 231 229 198 172 156 110 60 15 333 325 283 287 218 184 278 212 149 126 130 62 26 3 3
244 246 252 256 256 256 259 265 270 276 280 284 285 284 262 260 251 247 239 223 219 218 216 208 196 173 139 119 29 35 55 357 285 163 284 149 261 69 130 274 99 94 58 34 17
244 248 250 251 253 253 255 261 268 274 279 281 281 264 263 255 241 233 221 218 210 200 180 174 167 138 129 96 15 8 240 210 312 46 119 125 260 170 82 339 119 103 90 72 59
244 246 247 246 246 248 251 258 268 274 271 271 257 267 239 226 218 212 204 195 181 179 160 171 139 84 49 111 221 196 211 233 232 357 68 151 267 286 21 124 132 119 101 89 77
243 244 241 237 238 242 246 259 273 269 239 218 222 206 224 207 201 196 189 176 154 163 152 143 123 209 201 200 155 150 177 210 249 222 135 237 237 263 63 120 140 141 132 113 97
240 239 237 232 229 234 235 222 225 265 298 258 244 240 236 206 195 196 185 177 170 165 121 57 223 227 140 169 183 147 177 238 284 229 166 262 255 205 25 123 178 153 140 128 119
237 235 229 222 225 231 233 230 241 273 265 260 236 238 232 223 224 203 188 184 153 143 190 171 212 154 157 166 174 201 208 187 214 10 258 19 285 171 36 104 132 144 145 140 131
232 231 217 210 227 234 233 232 230 240 288 258 213 217 199 180 219 199 190 182 180 192 165 229 258 181 168 208 150 221 197 191 179 119 231 126 272 303 155 125 146 158 160 152 143
230 222 212 202 214 215 223 211 189 167 288 219 167 172 161 179 143 166 181 188 170 172 140 232 177 176 198 214 159 224 119 158 142 156 87 240 300 256 129 224 197 193 177 167 158
227 220 210 206 215 211 197 174 158 102 239 202 142 160 135 166 138 117 161 157 141 127 229 238 238 167 200 117 166 146 83 54 53 84 267 226 187 251 193 210 168 188 188 177 168
227 219 212 214 214 199 179 157 166 216 5 188 184 173 162 157 166 150 162 175 162 135 217 195 220 191 169 95 58 101 105 326 348 333 233 330 164 249 185 182 192 185 185 182 174
226 222 217 218 216 198 178 143 211 213 207 103 128 109 183 157 202 167 139 192 236 154 129 168 259 168 191 185 172 181 165 161 211 205 245 62 237 258 351 320 269 199 185 181 180
224 222 218 212 213 204 185 201 220 178 165 137 94 145 225 215 156 142 195 204 198 184 187 159 266 137 116 125 134 190 195 145 100 19 45 209 260 225 49 37 139 169 181 188 188
221 218 220 215 212 209 206 216 231 174 133 149 200 182 183 192 160 188 176 200 206 186 208 205 142 65 131 110 43 156 162 78 3 256 259 250 256 224 228 214 167 177 190 197 197
233 214 222 214 209 206 216 217 225 203 180 178 204 188 189 177 181 197 202 237 197 174 163 161 129 243 120 203 175 139 175 80 144 153 201 283 253 209 207 169 186 200 200 200 203
216 209 200 199 200 200 215 213 212 188 202 210 234 154 174 176 184 203 199 229 176 145 167 194 139 165 190 127 16 31 197 163 196 225 238 137 261 349 239 186 183 197 203 206 211
197 177 183 188 209 215 203 219 217 177 200 172 204 195 185 166 201 182 189 281 173 155 166 178 183 88 358 69 67 207 196 168 110 72 198 213 265 356 103 160 197 199 203 208 216
171 142 174 226 292 232 211 211 210 203 200 172 163 140 117 152 212 181 203 190 217 195 191 161 163 174 211 190 138 173 188 191 168 221 214 241 270 197 199 194 195 206 210 208 216
168 191 181 187 228 254 276 187 198 180 210 179 179 195 185 178 186 181 144 126 236 197 224 174 210 174 162 150 175 200 190 175 193 217 222 255 228 188 205 201 208 206 205 215 225
166 159 187 189 183 199 239 194 204 176 165 196 176 170 185 186 180 178 153 163 184 73 175 345 184 100 305 35 268 258 230 177 212 196 239 216 258 183 210 222 219 217 218 232 249
181 178 181 177 170 183 206 195 212 187 270 191 204 185 216 213 200 162 153 171 175 161 178 169 144 140 224 77 66 278 223 213 189 193 201 217 242 136 197 207 217 231 234 236 236